N18929 KSAN-KLAX

Flight info

Callsign N18929
Flight time N/A
Altitude VFR
Route
Aircraft BE76/L-VGD/C

Departure

Time 2026-05-05 23:58
Airport San Diego International Airport (KSAN)

Arrival

Time N/A
Airport Los Angeles International Airport (KLAX)
Time Latitude Longitude Altitude Speed Heading
2026-05-05 23:51 32.73346 -117.17864 21 ft 0 kts 17°
2026-05-05 23:53 32.73347 -117.17863 21 ft 0 kts 17°
2026-05-05 23:55 32.73356 -117.17864 22 ft 2 kts 327°
2026-05-05 23:55 32.73374 -117.17896 21 ft 5 kts 301°
2026-05-05 23:55 32.73369 -117.17947 20 ft 8 kts 213°
2026-05-05 23:56 32.73307 -117.17969 19 ft 10 kts 195°
2026-05-05 23:56 32.73236 -117.17976 18 ft 10 kts 143°
2026-05-05 23:56 32.73209 -117.17886 19 ft 12 kts 107°
2026-05-05 23:56 32.73183 -117.17780 20 ft 13 kts 105°
2026-05-05 23:57 32.73157 -117.17672 22 ft 13 kts 105°
2026-05-05 23:57 32.73117 -117.17570 23 ft 14 kts 146°
2026-05-05 23:57 32.73025 -117.17539 22 ft 14 kts 210°
2026-05-05 23:57 32.73044 -117.17690 21 ft 48 kts 285°
2026-05-05 23:58 32.73204 -117.18332 57 ft 101 kts 283°
2026-05-05 23:58 32.73414 -117.19233 216 ft 122 kts 283°
2026-05-05 23:58 32.73662 -117.20221 470 ft 127 kts 283°
2026-05-05 23:58 32.74159 -117.21072 830 ft 127 kts 319°
2026-05-05 23:59 32.74876 -117.21670 1131 ft 129 kts 320°
2026-05-05 23:59 32.75561 -117.22261 1546 ft 121 kts 319°
2026-05-05 23:59 32.76266 -117.22882 1756 ft 129 kts 320°
2026-05-05 23:59 32.77031 -117.23447 2026 ft 130 kts 326°
2026-05-06 00:00 32.77808 -117.24040 2236 ft 132 kts 321°
2026-05-06 00:00 32.78512 -117.24739 2409 ft 135 kts 316°
2026-05-06 00:00 32.79274 -117.25375 2648 ft 133 kts 326°
2026-05-06 00:00 32.80055 -117.25966 2858 ft 134 kts 321°
2026-05-06 00:01 32.80809 -117.26610 3130 ft 128 kts 326°
2026-05-06 00:01 32.81558 -117.27038 3515 ft 122 kts 335°
2026-05-06 00:01 32.82415 -117.27387 3637 ft 132 kts 340°
2026-05-06 00:01 32.83255 -117.27666 3995 ft 124 kts 341°
2026-05-06 00:02 32.84126 -117.27975 4143 ft 132 kts 338°
2026-05-06 00:02 32.84952 -117.28365 4447 ft 126 kts 332°
2026-05-06 00:02 32.85766 -117.28788 4658 ft 131 kts 349°
2026-05-06 00:02 32.86681 -117.28706 4893 ft 131 kts 354°
2026-05-06 00:03 32.87565 -117.28865 5134 ft 129 kts 344°
2026-05-06 00:03 32.88438 -117.29110 5372 ft 128 kts 342°
2026-05-06 00:03 32.89306 -117.29387 5610 ft 128 kts 341°
2026-05-06 00:03 32.90165 -117.29677 5846 ft 128 kts 340°
2026-05-06 00:04 32.91018 -117.29974 6080 ft 128 kts 340°
2026-05-06 00:04 32.91877 -117.30276 6307 ft 128 kts 340°
2026-05-06 00:04 32.92781 -117.30598 6289 ft 143 kts 340°
2026-05-06 00:04 32.93778 -117.30956 6257 ft 151 kts 341°
2026-05-06 00:05 32.95853 -117.31692 6159 ft 158 kts 341°
2026-05-06 00:05 32.96920 -117.32072 6114 ft 159 kts 341°
2026-05-06 00:05 32.97976 -117.32447 6071 ft 159 kts 341°
2026-05-06 00:06 32.99045 -117.32828 6026 ft 159 kts 341°
2026-05-06 00:06 33.00099 -117.33203 5982 ft 159 kts 341°
2026-05-06 00:06 33.01178 -117.33588 5965 ft 158 kts 341°
2026-05-06 00:06 33.02219 -117.33961 5962 ft 157 kts 341°
2026-05-06 00:07 33.03275 -117.34339 5957 ft 157 kts 341°
2026-05-06 00:07 33.04319 -117.34713 5954 ft 157 kts 341°
2026-05-06 00:07 33.05371 -117.35088 5956 ft 157 kts 341°
2026-05-06 00:07 33.06424 -117.35465 5957 ft 157 kts 341°
2026-05-06 00:08 33.07472 -117.35841 5959 ft 158 kts 341°
2026-05-06 00:08 33.08527 -117.36217 5954 ft 158 kts 341°
2026-05-06 00:08 33.09243 -117.36474 5952 ft 158 kts 341°
2026-05-06 00:08 33.10649 -117.36974 5950 ft 158 kts 341°
2026-05-06 00:09 33.11711 -117.37353 5948 ft 158 kts 341°
2026-05-06 00:09 33.12763 -117.37731 5947 ft 158 kts 341°
2026-05-06 00:09 33.13824 -117.38113 5946 ft 157 kts 341°
2026-05-06 00:09 33.14876 -117.38490 5944 ft 157 kts 341°
2026-05-06 00:10 33.15913 -117.38861 5944 ft 156 kts 341°
2026-05-06 00:10 33.16964 -117.39239 5943 ft 157 kts 341°
2026-05-06 00:10 33.18016 -117.39618 5943 ft 157 kts 341°
2026-05-06 00:10 33.19061 -117.39996 5944 ft 158 kts 342°
2026-05-06 00:11 33.19770 -117.40252 5943 ft 158 kts 342°
2026-05-06 00:11 33.21173 -117.40759 5944 ft 158 kts 342°
2026-05-06 00:11 33.22231 -117.41138 5943 ft 159 kts 342°
2026-05-06 00:11 33.23297 -117.41522 5943 ft 159 kts 342°
2026-05-06 00:12 33.23980 -117.41845 5929 ft 158 kts 326°
2026-05-06 00:12 33.25059 -117.43001 5943 ft 157 kts 316°
2026-05-06 00:12 33.25854 -117.43913 5944 ft 157 kts 315°
2026-05-06 00:12 33.26635 -117.44817 5946 ft 156 kts 315°
2026-05-06 00:13 33.27413 -117.45718 5947 ft 155 kts 315°
2026-05-06 00:13 33.28188 -117.46619 5948 ft 155 kts 315°
2026-05-06 00:13 33.28703 -117.47220 5948 ft 155 kts 316°
2026-05-06 00:13 33.29734 -117.48422 5946 ft 156 kts 316°
2026-05-06 00:14 33.30256 -117.49031 5947 ft 156 kts 316°
2026-05-06 00:14 33.31290 -117.50234 5943 ft 156 kts 316°
2026-05-06 00:14 33.32075 -117.51147 5946 ft 157 kts 316°
2026-05-06 00:14 33.32861 -117.52062 5947 ft 157 kts 316°
2026-05-06 00:15 33.33644 -117.52974 5949 ft 158 kts 316°
2026-05-06 00:15 33.34428 -117.53887 5950 ft 158 kts 315°
2026-05-06 00:15 33.35223 -117.54814 5937 ft 158 kts 315°
2026-05-06 00:15 33.36006 -117.55730 5931 ft 157 kts 316°
2026-05-06 00:16 33.36787 -117.56644 5940 ft 157 kts 316°
2026-05-06 00:16 33.37571 -117.57561 5934 ft 157 kts 316°
2026-05-06 00:16 33.38350 -117.58473 5933 ft 157 kts 316°
2026-05-06 00:16 33.39123 -117.59376 5931 ft 156 kts 316°
2026-05-06 00:17 33.39906 -117.60291 5929 ft 156 kts 316°
2026-05-06 00:17 33.40686 -117.61202 5930 ft 156 kts 316°
2026-05-06 00:17 33.41466 -117.62116 5929 ft 157 kts 316°
2026-05-06 00:17 33.42243 -117.63026 5939 ft 157 kts 316°
2026-05-06 00:18 33.43033 -117.63949 5931 ft 158 kts 316°
2026-05-06 00:18 33.43816 -117.64867 5927 ft 157 kts 316°
2026-05-06 00:18 33.44602 -117.65790 5926 ft 157 kts 316°
2026-05-06 00:18 33.45383 -117.66704 5928 ft 158 kts 316°
2026-05-06 00:19 33.46172 -117.67630 5931 ft 158 kts 316°
2026-05-06 00:19 33.46948 -117.68537 5932 ft 157 kts 316°
2026-05-06 00:19 33.47734 -117.69458 5931 ft 157 kts 316°
2026-05-06 00:19 33.48516 -117.70373 5929 ft 157 kts 316°
2026-05-06 00:20 33.49295 -117.71288 5931 ft 156 kts 316°
2026-05-06 00:20 33.50072 -117.72199 5932 ft 156 kts 316°
2026-05-06 00:20 33.50851 -117.73114 5932 ft 157 kts 316°
2026-05-06 00:20 33.51642 -117.74044 5932 ft 157 kts 316°
2026-05-06 00:21 33.52426 -117.74965 5934 ft 158 kts 316°
2026-05-06 00:21 33.53215 -117.75892 5933 ft 158 kts 316°
2026-05-06 00:21 33.54004 -117.76820 5934 ft 158 kts 316°
2026-05-06 00:21 33.54781 -117.77734 5937 ft 157 kts 316°
2026-05-06 00:22 33.55575 -117.78665 5935 ft 158 kts 316°
2026-05-06 00:22 33.56360 -117.79586 5863 ft 162 kts 316°
2026-05-06 00:22 33.57185 -117.80553 5709 ft 167 kts 316°
2026-05-06 00:22 33.58022 -117.81534 5540 ft 169 kts 315°
2026-05-06 00:23 33.58869 -117.82529 5377 ft 170 kts 315°
2026-05-06 00:23 33.59428 -117.83187 5272 ft 170 kts 315°
2026-05-06 00:23 33.60567 -117.84529 5057 ft 171 kts 315°
2026-05-06 00:23 33.61414 -117.85526 4903 ft 172 kts 315°
2026-05-06 00:24 33.62247 -117.86509 4925 ft 164 kts 315°
2026-05-06 00:24 33.62789 -117.87150 4928 ft 161 kts 315°
2026-05-06 00:24 33.63845 -117.88399 4931 ft 160 kts 315°
2026-05-06 00:24 33.64633 -117.89329 4931 ft 159 kts 315°
2026-05-06 00:25 33.65428 -117.90268 4930 ft 160 kts 315°
2026-05-06 00:25 33.66230 -117.91214 4928 ft 160 kts 315°
2026-05-06 00:25 33.67028 -117.92153 4929 ft 160 kts 315°
2026-05-06 00:25 33.67823 -117.93082 4929 ft 160 kts 315°
2026-05-06 00:26 33.68663 -117.93948 4931 ft 159 kts 323°
2026-05-06 00:26 33.69577 -117.94727 4931 ft 160 kts 324°
2026-05-06 00:26 33.70498 -117.95489 4928 ft 160 kts 325°
2026-05-06 00:26 33.71423 -117.96245 4931 ft 160 kts 325°
2026-05-06 00:27 33.72339 -117.96990 4928 ft 160 kts 325°
2026-05-06 00:27 33.73267 -117.97745 4927 ft 160 kts 325°
2026-05-06 00:27 33.74184 -117.98491 4927 ft 160 kts 326°
2026-05-06 00:27 33.74802 -117.98993 4927 ft 160 kts 326°
2026-05-06 00:28 33.76035 -117.99995 4929 ft 161 kts 326°
2026-05-06 00:28 33.76965 -118.00748 4928 ft 161 kts 326°
2026-05-06 00:28 33.77891 -118.01500 4926 ft 160 kts 326°
2026-05-06 00:28 33.78824 -118.02258 4929 ft 160 kts 326°
2026-05-06 00:29 33.79756 -118.03016 4930 ft 160 kts 326°
2026-05-06 00:29 33.80679 -118.03766 4932 ft 160 kts 326°
2026-05-06 00:29 33.81606 -118.04520 4928 ft 160 kts 326°
2026-05-06 00:29 33.82533 -118.05275 4930 ft 160 kts 326°
2026-05-06 00:30 33.83465 -118.06035 4931 ft 160 kts 325°
2026-05-06 00:30 33.84382 -118.06780 4930 ft 160 kts 326°
2026-05-06 00:30 33.85304 -118.07533 4928 ft 160 kts 326°
2026-05-06 00:30 33.86236 -118.08292 4928 ft 160 kts 326°
2026-05-06 00:31 33.87166 -118.09049 4927 ft 161 kts 326°
2026-05-06 00:31 33.87781 -118.09552 4929 ft 161 kts 326°
2026-05-06 00:31 33.89036 -118.10527 4918 ft 161 kts 336°
2026-05-06 00:31 33.90150 -118.10746 4862 ft 166 kts 354°
2026-05-06 00:32 33.91342 -118.10840 4637 ft 174 kts 356°
2026-05-06 00:32 33.92588 -118.10966 4256 ft 184 kts 346°
2026-05-06 00:32 33.93677 -118.11740 3884 ft 187 kts 322°
2026-05-06 00:32 33.94733 -118.12691 3552 ft 188 kts 321°
2026-05-06 00:33 33.95689 -118.13679 3496 ft 175 kts 306°
2026-05-06 00:33 33.95970 -118.15028 3525 ft 165 kts 270°
2026-05-06 00:33 33.95963 -118.16421 3520 ft 163 kts 264°
2026-05-06 00:33 33.95863 -118.17320 3449 ft 166 kts 261°
2026-05-06 00:34 33.95655 -118.19179 3191 ft 171 kts 262°
2026-05-06 00:34 33.95502 -118.20606 2972 ft 167 kts 263°
2026-05-06 00:34 33.95367 -118.21954 2757 ft 160 kts 263°
2026-05-06 00:34 33.95235 -118.23283 2547 ft 157 kts 263°
2026-05-06 00:35 33.95107 -118.24564 2341 ft 153 kts 262°
2026-05-06 00:35 33.94981 -118.25841 2138 ft 152 kts 262°
2026-05-06 00:35 33.94857 -118.27085 1938 ft 151 kts 262°
2026-05-06 00:35 33.94733 -118.28330 1726 ft 140 kts 262°
2026-05-06 00:36 33.94624 -118.29428 1543 ft 126 kts 262°
2026-05-06 00:36 33.94525 -118.30411 1382 ft 114 kts 262°
2026-05-06 00:36 33.94429 -118.31337 1235 ft 108 kts 262°
2026-05-06 00:36 33.94341 -118.32220 1118 ft 101 kts 262°
2026-05-06 00:37 33.94261 -118.33032 985 ft 94 kts 261°
2026-05-06 00:37 33.94190 -118.33749 849 ft 75 kts 261°
2026-05-06 00:37 33.94131 -118.34341 777 ft 68 kts 261°
2026-05-06 00:37 33.94074 -118.34901 684 ft 66 kts 260°
2026-05-06 00:38 33.94018 -118.35452 595 ft 66 kts 261°
2026-05-06 00:38 33.93962 -118.35995 508 ft 65 kts 260°
2026-05-06 00:38 33.93908 -118.36536 416 ft 59 kts 261°
2026-05-06 00:38 33.93874 -118.36983 168 ft 55 kts 256°